This is the latest recevied weather packets stored in our database for station/object N6GPM. If no packets are shown the sender has not sent any weather packets the latest 10 day(s).
| Time | Temp. | Humidity | Pressure | Rain* | Wind** | Luminosity | Snow |
|---|---|---|---|---|---|---|---|
| 1777989482 | 10° C | 96% | 1016.7 hPa | 0 mm | - | 60 W/m² | - |
| 1777988268 | 10° C | 95% | 1016.5 hPa | 0 mm | - | 32 W/m² | - |
| 1777987965 | 10° C | 95% | 1016.7 hPa | 0 mm | - | 15 W/m² | - |
| 1777987660 | 10° C | 95% | 1016.6 hPa | 0 mm | - | 12 W/m² | - |
| 1777987358 | 10° C | 95% | 1016.4 hPa | 0 mm | - | 13 W/m² | - |
| 1777987055 | 10° C | 95% | 1016.6 hPa | 0 mm | - | 11 W/m² | - |
| 1777984631 | 10.56° C | 95% | 1016.1 hPa | 7.87 mm | - | 0 W/m² | - |
| 1777984329 | 10.56° C | 95% | 1016.3 hPa | 0 mm | - | 0 W/m² | - |
| 1777984025 | 10.56° C | 95% | 1016 hPa | 0 mm | - | 0 W/m² | - |
| 1777983419 | 10.56° C | 94% | 1016.3 hPa | 0 mm | - | 0 W/m² | - |
| 1777981293 | 10.56° C | 94% | 1016.3 hPa | 0 mm | - | 0 W/m² | - |
| 1777980989 | 10.56° C | 94% | 1016.3 hPa | 0 mm | - | 0 W/m² | - |
| 1777980686 | 10.56° C | 94% | 1016.4 hPa | 0 mm | - | 0 W/m² | - |
| 1777980382 | 10.56° C | 94% | 1016.4 hPa | 0 mm | - | 0 W/m² | - |
| 1777979774 | 10.56° C | 94% | 1016.3 hPa | 0 mm | - | 0 W/m² | - |
| 1777979167 | 10.56° C | 93% | 1016.1 hPa | 0 mm | - | 0 W/m² | - |
| 1777978561 | 10.56° C | 93% | 1016.3 hPa | 0 mm | - | 0 W/m² | - |
| 1777977347 | 10.56° C | 92% | 1016.4 hPa | 1.78 mm | - | 0 W/m² | - |
| 1777977045 | 10.56° C | 92% | 1016.5 hPa | 1.27 mm | - | 0 W/m² | - |
| 1777976742 | 10.56° C | 92% | 1016.5 hPa | 3.05 mm | - | 0 W/m² | - |
| 1777976138 | 10.56° C | 91% | 1016.5 hPa | 0 mm | - | 0 W/m² | - |
| 1777975834 | 10.56° C | 91% | 1016.7 hPa | 0 mm | - | 0 W/m² | - |
| 1777975531 | 10.56° C | 92% | 1016.5 hPa | 0 mm | - | 0 W/m² | - |
| 1777975228 | 10.56° C | 92% | 1016.8 hPa | 0 mm | - | 0 W/m² | - |
| 1777974924 | 10.56° C | 92% | 1016.7 hPa | 0 mm | - | 0 W/m² | - |
* Rain latest hour (hover to see other rain measurements)
** Current wind speed in m/s (hover to see current wind gust speed)